Regional Weather Roundup
Issued by NWS

Home | Current Version | Previous Version | Graphics & Text | Print | Product List | Glossary Off
Versions: 1 2 3 4 5 6 7 8 9 10 11 12 13 14 15 16 17 18 19 20 21 22 23 24 25 26 27 28 29 30 31 32 33 34 35 36 37 38 39 40 41 42 43 44 45 46 47 48 49 50

000
ASUS43 KMKX 230121
RWRWI

WISCONSIN REGIONAL WEATHER ROUNDUP
NATIONAL WEATHER SERVICE MILWAUKEE/SULLIVAN WI
700 PM CST WED FEB 22 2017

NOTE: "FAIR" INDICATES FEW OR NO CLOUDS BELOW 12,000 FEET WITH NO
SIGNIFICANT WEATHER AND/OR OBSTRUCTIONS TO VISIBILITY.

WIZ001-002-006>008-014>016-023>028-230200-
NORTHWEST WISCONSIN

CITY           SKY/WX    TMP DP  RH WIND       PRES   REMARKS
SUPERIOR ARPT  CLOUDY    36  35  96 N6        29.68R WCI  31
ASHLAND        FOG       33  32  96 N7        29.66R VSB 1/2 WCI  27
HAYWARD        CLOUDY    42  37  82 N10       29.60F
SIREN          CLOUDY    44  36  73 N8        29.61R
CUMBERLAND     CLOUDY    41  39  93 N6        29.57F FOG
RICE LAKE      CLOUDY    44  42  95 CALM      29.58F
CHETEK         CLOUDY    44  42  96 N6        29.57S
LADYSMITH      MOCLDY    44  42  93 N7        29.59R
EAU CLAIRE     CLEAR     46  40  79 W3        29.55R
MENOMONIE      CLEAR     45  39  80 CALM      29.57R
NEW RICHMOND   CLOUDY    45  44  97 NW7       29.59S FOG
OSCEOLA        FOG       45  45 100 SW3       29.62S VSB 3/4
$$

WIZ003>005-009-010-017-018-230200-
NORTH CENTRAL WISCONSIN

CITY           SKY/WX    TMP DP  RH WIND       PRES   REMARKS
MANITOWISH WTR DRIZZLE   38  38 100 CALM      29.58F
ARBOR VITAE    DRZL/FOG  42  41  97 CALM        N/A  VSB 1
WOODRUFF       DRZL/FOG  42  41  97 CALM        N/A  VSB 1
RHINELANDER    LGT RAIN  43  42  97 SW3       29.59R
EAGLE RIVER    DRZL/FOG  41  41 100 CALM      29.58R VSB 3/4
LAND O LAKES   RAIN      40  40 100 CALM      29.60R VSB 1
PHILLIPS       CLOUDY    41  41 100 NE5       29.56S FOG
TOMAHAWK       MOCLDY    40  38  90 CALM      29.58R
MEDFORD        PTCLDY    43  38  83 CALM      29.55S
MERRILL        NOT AVBL
$$

WIZ029-030-035-036-043>047-230200-
CENTRAL WISCONSIN

CITY           SKY/WX    TMP DP  RH WIND       PRES   REMARKS
WAUSAU         MOCLDY    50  38  63 NW5       29.53F
MOSINEE        MOCLDY    48  39  71 N6        29.55F
MARSHFIELD     CLOUDY    47  40  76 CALM      29.53F
STEVENS POINT  MOCLDY    42  35  76 CALM      29.55S
WAUPACA        CLEAR     52  38  58 CALM      29.54S
WAUTOMA        CLEAR     48  38  68 CALM      29.54F
WISC RAPIDS    CLOUDY    45  36  70 CALM      29.56R
CAMP DOUGLAS   PTCLDY    43  36  75 W6        29.55R
$$

WIZ011>013-019>022-031-037>040-048>050-230200-
NORTHEAST WISCONSIN

CITY           SKY/WX    TMP DP  RH WIND       PRES   REMARKS
ANTIGO         CLOUDY    44  37  77 CALM      29.55F
SHAWANO        CLOUDY    46  38  73 CALM      29.54S
OCONTO         CLOUDY    42  40  92 SE6       29.54F
STURGEON BAY   CLOUDY    40  39  97 SE7       29.58R FOG
GREEN BAY      MOCLDY    49  44  83 NE8       29.55F
MANITOWOC      CLOUDY    43  40  89 E3        29.55S
APPLETON       MOCLDY    48  37  66 N9        29.53F
CLINTONVILLE   CLOUDY    48  37  66 SE5       29.53F
OSHKOSH        CLEAR     55  42  61 N10       29.53S
$$

WIZ032>034-041-042-053>061-230200-
SOUTHWEST WISCONSIN

CITY           SKY/WX    TMP DP  RH WIND       PRES   REMARKS
LA CROSSE      CLEAR     46  38  73 CALM      29.56S
SPARTA         CLEAR     42  37  83 CALM      29.57S
VIROQUA        CLEAR     50  41  71 W6        29.56F
BOSCOBEL       CLEAR     62  43  49 VRB7      29.56R
PRAIRIE DU CHI CLEAR     55  42  62 W7        29.58S
PLATTEVILLE    CLEAR     60  44  56 W14G20    29.58R
$$

WIZ056-057-062-063-064-067-068-230200-
SOUTH CENTRAL WISCONSIN

CITY           SKY/WX    TMP DP  RH WIND       PRES   REMARKS
REEDSBURG      CLEAR     53  44  70 CALM      29.54R
BARABOO/DELLS  CLEAR     53  42  66 W3        29.54S
LONE ROCK      CLEAR     60  44  55 W10       29.55R
MINERAL POINT  CLEAR     61  48  63 SW9       29.57R
MADISON        PTCLDY    61  52  72 S6        29.54S
MIDDLETON      CLEAR     62  52  71 SW5       29.54S
WATERTOWN      PTCLDY    58  51  76 S7        29.55S
MONROE         CLEAR     59  54  82 S16       29.57R
JANESVILLE     CLEAR     61  52  72 S12G17    29.57R
$$

WIZ051-052-058>065-066-070>072-230200-
SOUTHEAST WISCONSIN

CITY           SKY/WX    TMP DP  RH WIND       PRES   REMARKS
MILWAUKEE      PTCLDY    62  49  62 SW12      29.57R
WAUKESHA       CLEAR     57  50  77 SW10G18   29.58R
MILWAUKEE/TIMM CLEAR     61  48  63 SW13      29.57R
RACINE         CLEAR     61  50  67 SW15G23   29.58R
KENOSHA        CLEAR     62  51  67 SW15G22   29.58R
FOND DU LAC    CLEAR     53  46  77 SW5       29.53S
SHEBOYGAN      MOCLDY    46  41  82 S7        29.54R
WEST BEND      CLEAR     61  50  67 SW12      29.55S
JUNEAU         MOCLDY    58  49  69 S10       29.55S
$$

LSZ147-162-230200-
LAKE SUPERIOR

STATION/POSITION TIME  TEMP    WIND        PRES    WAVE
                       AIR SEA DIR/SP/G            HT/PER
                 (UTC) (F)     (DEG/KT/KT) (MB)    (FT/S)
DEVILS ISLAND    0100   35      10/  6/  6 1005.8R
PORT WING        0030   34      30/  9/ 11 1005.1R
SAXON HARBOR     0030   34     290/  4/  6 1003.4S
$$

LMZ867-665-643>646-230200-
LAKE MICHIGAN

STATION/POSITION TIME  TEMP    WIND        PRES    WAVE
                       AIR SEA DIR/SP/G            HT/PER
                 (UTC) (F)     (DEG/KT/KT) (MB)    (FT/S)
CHAMBERS ISLAND  0040   41      90/  7/ 11 1000.7F
NORTHPORT PIER   0040   39     150/ 12/ 16 1001.4F
SISTER BAY       0020   42     170/  8/ 11   N/A
ALGOMA LAKESHORE 2310           90/  6/  7   N/A
KEWAUNEE LAKESHO 0030   38      CALM  /  5 1000.1F
SHEBOYGAN LAKESH 0100   47     190/  7/  9 1000.5R
PORT WASHINGTON  0030   47      CALM  /  3 1002.0R
MILWAUKEE LAKESH 0050   63     250/ 14/ 19   N/A
KENOSHA   LAKESH 0100   60     200/  9/ 15 1001.7
$$

TC  - TEMPERATURE IN CELSIUS
VSB - VISIBILITY IN STATUTE MILES
WCI - WIND CHILL INDEX
HX  - HEAT INDEX





USA.gov is the U.S. government's official web portal to all federal, state and local government web resources and services.